Tracking 22124 objects as of 25-Jan-2021
HD Live streaming from Space Station
objects crossing your sky now

NAVSTAR 64 (USA 206)

Track NAVSTAR 64 (USA 206) now!
NAVSTAR 64 (USA 206) is classified as:


NORAD ID: 35752
Int'l Code: 2009-043A
Perigee: 20,036.1 km
Apogee: 20,345.3 km
Inclination: 54.7 °
Period: 718.0 minutes
Semi major axis: 26561 km
RCS: 6.3 m2 (large)
Launch date: August 17, 2009
Source: United States (US)
Launch site: AIR FORCE EASTERN TEST RANGE (AFETR)
PRN: 5
aabbcc
Your satellite tracking list
Your tracking list is empty




NASA's NSSDC Master Catalog

Two Line Element Set (TLE):
1 35752U 09043A   21025.22476806 -.00000038  00000-0  00000-0 0  9995
2 35752  54.7171 106.0519 0058196  49.4382 315.9371  2.00548176 83878
Source of the keplerian elements: AFSPC